Torna al catalogo

DELTA 4 R/B

AttivoMEO
NORAD 37233·ROCKET BODY·🇺🇸 United States

Lanciato Nov 21, 2010 da Cape Canaveral Space Force Station

Loading…

Prossimi Passaggi (prossime 24 ore)

TLE

AggiornatoSource: Space-Track

Epoca: Sep 14, 2026, 09:23 UTC

1 37233U 10063B   26257.39114446 -.00000146  00000-0  00000-0 0  9994
2 37233   9.6246  79.7864 0211859  70.7384 291.6928  1.04039054 27230

Traccia DELTA 4 R/B in tempo reale con AllMySat

Download on the App Store